Jonesboro, AR

8:23 AM CDT on June 28, 2017 (GMT -0500)
Jonesboro Municipal

Weather History for KJBR - April, 2014

Change the Weather History Date:

Thursday, April 17, 2014

  Actual Average Record
Temperature  
Mean Temperature 52 °F 60 °F  
Max Temperature 67 °F 71 °F 91 °F (2006)
Min Temperature 36 °F 50 °F 32 °F (1951)
Degree Days  
Heating Degree Days 13 6  
Month to date heating degree days 164 141  
Since 1 July heating degree days 4060 3561  
Cooling Degree Days 0 1  
Month to date cooling degree days 13 17  
Year to date cooling degree days 13 23  
Growing Degree Days 2 (Base 50)    
Moisture  
Dew Point 40 °F    
Average Humidity 63    
Maximum Humidity 92    
Minimum Humidity 34    
Precipitation  
Precipitation 0.00 in 0.17 in 2.05 in (1990)
Month to date precipitation 3.83 2.67  
Year to date precipitation 13.55 14.32  
Snow  
Snow 0.00 in - - ()
Month to date snowfall 0.0  
Snow Depth 0.00 in    
Sea Level Pressure  
Sea Level Pressure 30.23 in    
Wind  
Wind Speed 4 mph (SE)    
Max Wind Speed 14 mph    
Max Gust Speed 21 mph    
Visibility 10 miles    
Events      
T = Trace of Precipitation, MM = Missing Value Source: NWS Daily Summary

Daily Weather History Graph

Daily Weather History Graph

Search for Another Location

Airport or City:

Trip Planner

Search our weather history database for the weather conditions in past years. The results will help you decide how hot, cold, wet, or windy it might be!

Date:

Astronomy

Apr. 17, 2014 Rise Set
Actual Time 6:27 AM CDT 7:37 PM CDT
Civil Twilight 6:00 AM CDT 8:04 PM CDT
Nautical Twilight 5:29 AM CDT 8:35 PM CDT
Astronomical Twilight 4:56 AM CDT 9:08 PM CDT
Moon 10:19 PM CDT (4/17) 8:02 AM CDT (4/17)
Length of Visible Light 14h 03m
Length of Day
13h 10m
Waning Gibbous, 93% of the Moon is Illuminated
Apr 17
Waning Gibbous
Apr 22
Last Quarter
Apr 29
New
May 6
First Quarter
May 14
Full

Hourly Weather History & Observations

Time (CDT) Temp. Windchill Dew Point Humidity Pressure Visibility Wind Dir Wind Speed Gust Speed Precip Events Conditions
12:53 AM 39.9 °F - 36.0 °F 86% 30.18 in 10.0 mi Calm Calm - N/A   Clear
1:53 AM 39.0 °F - 35.1 °F 86% 30.19 in 10.0 mi Calm Calm - N/A   Clear
2:53 AM 37.9 °F - 35.1 °F 89% 30.19 in 10.0 mi Calm Calm - N/A   Clear
3:53 AM 37.9 °F - 35.1 °F 89% 30.19 in 10.0 mi Calm Calm - N/A   Clear
4:53 AM 37.0 °F - 35.1 °F 93% 30.20 in 10.0 mi Calm Calm - N/A   Clear
5:53 AM 37.0 °F - 34.0 °F 89% 30.22 in 10.0 mi Calm Calm - N/A   Clear
6:53 AM 37.0 °F - 35.1 °F 93% 30.24 in 10.0 mi Calm Calm - N/A   Clear
7:53 AM 45.0 °F 42.6 °F 39.0 °F 80% 30.27 in 10.0 mi ENE 4.6 mph - N/A   Clear
8:53 AM 51.1 °F - 42.1 °F 71% 30.28 in 10.0 mi East 3.5 mph - N/A   Clear
9:53 AM 55.9 °F - 42.1 °F 60% 30.29 in 10.0 mi SSE 6.9 mph - N/A   Clear
10:53 AM 57.2 °F - 42.8 °F 59% 30.29 in 10.0 mi SE 5.8 mph - N/A   Clear
11:53 AM 60.8 °F - 41.0 °F 48% 30.27 in 10.0 mi SE 6.9 mph - N/A   Clear
12:53 PM 64.0 °F - 37.9 °F 38% 30.25 in 10.0 mi South 4.6 mph - N/A   Clear
1:53 PM 64.9 °F - 39.0 °F 39% 30.24 in 10.0 mi Variable 4.6 mph - N/A   Clear
2:53 PM 66.9 °F - 41.0 °F 39% 30.23 in 10.0 mi South 11.5 mph - N/A   Clear
3:53 PM 66.0 °F - 41.0 °F 40% 30.22 in 10.0 mi South 5.8 mph - N/A   Clear
4:53 PM 66.9 °F - 41.0 °F 39% 30.21 in 10.0 mi SE 6.9 mph - N/A   Clear
5:53 PM 66.9 °F - 37.9 °F 34% 30.20 in 10.0 mi South 6.9 mph - N/A   Clear
6:53 PM 64.9 °F - 39.0 °F 39% 30.20 in 10.0 mi South 3.5 mph - N/A   Clear
7:53 PM 57.0 °F - 44.1 °F 62% 30.22 in 10.0 mi Calm Calm - N/A   Clear
8:53 PM 54.0 °F - 44.1 °F 69% 30.23 in 10.0 mi Calm Calm - N/A   Partly Cloudy
9:53 PM 54.0 °F - 45.0 °F 72% 30.23 in 10.0 mi NE 5.8 mph - N/A   Clear
10:53 PM 54.0 °F - 43.0 °F 66% 30.22 in 10.0 mi Calm Calm - N/A   Clear
11:53 PM 55.0 °F - 43.0 °F 64% 30.22 in 10.0 mi NNE 3.5 mph - N/A   Mostly Cloudy